Other Public Products
Issued by NWS Grand Forks, ND

Home | Current Version | Previous Version | Graphics & Text | Print | Product List | Glossary On
Versions: 1 2 3 4 5 6 7 8 9 10 11 12 13 14 15 16 17 18 19 20 21 22 23 24 25 26 27 28 29 30 31 32 33 34 35 36 37 38 39 40 41 42 43 44 45 46 47 48 49 50
000
FPUS83 KFGF 152010
OPUFGF
PRAIRIE TO PINES WEATHER ROUNDUP
NATIONAL WEATHER SERVICE EASTERN NORTH DAKOTA/GRAND FORKS ND
300 PM CDT MON SEP 15 2014

 **SATELLITE DATA USED TO AUGMENT SKY COVER AT AUTOMATED STATIONS**
 *****  WEATHER ACROSS EASTERN NORTH DAKOTA  *****

CITY           SKY/WX    TMP DP  RH WIND       PRES   REMARKS
GRAND FORKS    MOSUNNY   66  38  35 W12       30.15F
GRAND FORKS AF PTSUNNY   67  38  34 W14G20    30.16F
GRAND CITY NWS   N/A     64 N/A N/A NW12        N/A
BUXTON         NOT AVBL
DEVILS LAKE    SUNNY     64  37  36 W16       30.13F
FARGO          MOSUNNY   64  35  34 W8        30.20F
WAHPETON ARPT  CLEAR     61  30  31 N10       30.23F
$$

 *****  WEATHER ACROSS CENTRAL AND WESTERN NORTH DAKOTA  *****

CITY           SKY/WX    TMP DP  RH WIND       PRES   REMARKS
JAMESTOWN      MOSUNNY   63  38  39 NW14      30.19F
BISMARCK       SUNNY     68  36  30 SW12      30.20F
MINOT          SUNNY     66  34  30 W13       30.14F
MINOT AFB      SUNNY     66  36  32 W10       30.13F
GARRISON         N/A     66  36  32 SW12G21   30.17F
WILLISTON      SUNNY     66  31  27 S6        30.15F
DICKINSON      SUNNY     64  37  36 S6        30.16F
HETTINGER      SUNNY     63  37  38 VRB6      30.21F
$$

 *****  OTHER OBSERVATIONS NORTHEAST NORTH DAKOTA  *****

CITY           SKY/WX    TMP DP  RH WIND       PRES   REMARKS
WALHALLA         N/A     64  36  34 NW10G16   30.11F
LANGDON        FAIR      64  36  34 W17G26    30.12F
CAVALIER       MOCLDY    66  37  34 W16       30.12F
GRAFTON        FAIR      64  37  36 W12G20    30.13F
CANDO          FAIR      64  36  34 W12G23    30.14F
FORT TOTTEN    NOT AVBL
ROLLA          FAIR      63  36  36 W13G22    30.14F
RUGBY          FAIR      64  36  34 W16G24    30.14F
 ***** THE ABOVE OBSERVATIONS ARE NON NWS ARE NOT QUALITY
        CONTROLLED AND MAY MIS-REPORT RAIN FOR SNOW...
$$

 *****  OTHER OBSERVATIONS SOUTHEAST NORTH DAKOTA *****

CITY           SKY/WX    TMP DP  RH WIND       PRES   REMARKS
COOPERSTOWN    NOT AVBL
VALLEY CITY    FAIR      63  36  36 NW12      30.20F
OAKES            N/A     63  36  36 W9        30.24S
GWINNER        CLEAR     63  36  36 W3        30.24F
SHEYENNE NWR     N/A     64  35  34 NW6       29.95
BUFFALO        NOT AVBL
WYNDMERE         N/A     64  36  34 NW6         N/A
 ***** THE ABOVE OBSERVATIONS ARE NON NWS ARE NOT QUALITY
       CONTROLLED AND MAY MIS-REPORT RAIN FOR SNOW...
$$

  *****  WEATHER ACROSS NORTHERN MINNESOTA  *****

CITY           SKY/WX    TMP DP  RH WIND       PRES   REMARKS
FLAG ISLAND    PTSUNNY   59  34  38 W10G17    30.09F
WARROAD        SUNNY     61  39  44 SW7       30.13F
ROSEAU         SUNNY     61  36  39 W8        30.14F
HALLOCK        SUNNY     64  30  27 W10G16    30.12F
THF RVR FALLS  PTSUNNY   63  36  36 W12       30.16F
HALSTAD          N/A     63  30  28 W7          N/A
FOSSTON        PTSUNNY   63  37  39 W12       30.19F
BAUDETTE       SUNNY     60  32  34 SW12G20   30.13F
WASKISH        PTSUNNY   57  41  54 SW14      30.16F
CROOKSTON      MOSUNNY   64  37  36 W14       30.17F
$$
  *****  WEATHER ACROSS CENTRAL AND WEST MINNESOTA  *****

CITY           SKY/WX    TMP DP  RH WIND       PRES   REMARKS
BEMIDJI        MOSUNNY   59  33  37 W9        30.18F
PARK RAPIDS    MOSUNNY   59  30  33 NW15G22   30.19F
WADENA         MOSUNNY   59  34  38 N9        30.21F
DETROIT LAKES  MOSUNNY   59  32  36 NW8       30.22F
MOORHEAD       SUNNY     63  27  25 W7        30.21F
FERGUS FALLS   SUNNY     61  27  27 NW9       30.23F
ELBOW LAKE     FAIR      59  34  38 N12       30.22F
MORRIS MN      SUNNY     63  34  34 NW9G16    30.22F
STAPLES        MOSUNNY   57  32  38 NW8       30.21F
WHEATON        SUNNY     61  32  33 NW9       30.25F
$$
  *****  WEATHER ELSEWHERE ACROSS MINNESOTA  *****

CITY           SKY/WX    TMP DP  RH WIND       PRES   REMARKS
DULUTH         MOSUNNY   57  32  38 N8G20     30.16F
INTRNTL FALLS  MOSUNNY   60  36  40 W9G21     30.13F
ELY            MOSUNNY   55  36  47 NW10G18   30.13F
CLOQUET        MOSUNNY   57  30  35 NW10G18   30.17F
BRAINERD       MOSUNNY   57  32  38 NW8       30.21F
HIBBING        PTSUNNY   60  34  37 NW12      30.17F
ALEXANDRIA     MOSUNNY   59  33  37 N14       30.23F
SAINT CLOUD    CLOUDY    63  36  36 NW10      30.21F
MINNEAPOLIS    PTSUNNY   59  40  49 NW13      30.21S
$$

  *****  WEATHER ACROSS SOUTH DAKOTA  *****

CITY           SKY/WX    TMP DP  RH WIND       PRES   REMARKS
SIOUX FALLS    PTSUNNY   60  43  53 N8        30.26S
BROOKINGS      NOT AVBL
WATERTOWN      MOSUNNY   59  35  40 W7        30.25S
HURON          SUNNY     63  34  33 N8        30.26F
SISSETON         N/A     63  31  30 NE5       30.23F
ABERDEEN       SUNNY     63  35  35 N8        30.25F
MITCHELL       SUNNY     62  36  37 VRB6      30.27F
PIERRE         SUNNY     64  36  35 CALM      30.25F
MOBRIDGE       SUNNY     63  33  32 S8        30.22F
RAPID CITY     SUNNY     64  44  48 S15G25    30.22F
$$

  *****  SOME WEATHER IN NEARBY STATES *****

CITY           SKY/WX    TMP DP  RH WIND       PRES   REMARKS
GLASGOW MT     SUNNY     67  36  31 SE9G20    30.11F
GREAT FALLS MT SUNNY     73  39  29 VRB5      30.06F
CHEYENNE WY    SUNNY     69  34  27 S15G22    30.31F
SCOTTSBLUFF NE SUNNY     66  46  48 SE14      30.26F
OMAHA NE       MOSUNNY   63  47  55 N18G24    30.24R
DES MOINES IA  PTSUNNY   64  51  62 N12       30.18S
DAVENPORT IA   CLOUDY    60  51  72 N18G29    30.09R
CHICAGO IL     CLOUDY    61  50  67 SW7       30.08S
EAU CLAIRE WI  PTSUNNY   60  39  45 NW8       30.16F
LA CROSSE WI   PTSUNNY   61  46  57 W9        30.17F
$$

  *****  SOME NATIONAL WEATHER *****

CITY           SKY/WX    TMP DP  RH WIND       PRES   REMARKS
LA GUARDIA NY  MOSUNNY   71  42  35 N7        30.12F
RALEIGH NC     CLOUDY    73  62  68 SE3       30.15F
ATLANTA GA     PTSUNNY   79  69  71 S5        30.13F
NEW ORLEANS LA LGT RAIN  82  75  79 W18       30.05F
OKLAHOMA CITY  PTSUNNY   82  65  56 SW9       30.13F
ALBUQUERQUE NM MOSUNNY   80  54  40 W6        30.20F
SALT LAKE CITY MOSUNNY   86  41  20 NW10      30.10F
LOS ANGELES CA MOSUNNY   81  62  52 W14       29.80F
BOISE ID       SUNNY     86  38  18 NW8       30.01F
SEATTLE WA     MOSUNNY   79  49  34 W6        29.86F
$$

*** WEATHER ACROSS MANITOBA...SASKATCHEWAN AND ONTARIO ***
                ***ONTARIO***

CITY           SKY/WX    TMP DP  RH WIND       PRES   REMARKS
GERALDTON      PTSUNNY   50  43  76 NW6       30.00
THUNDER BAY    MOSUNNY   59  41  51 W13       30.07F
SIOUX LOOKOUT  MOSUNNY   57  39  51 W9G22     30.02F
TORONTO        LGT RAIN  63  50  63 SW12      30.08F
BIG TROUT LK   CLOUDY    55  41  58 W9G18     29.80F
PICKLE LAKE    PTSUNNY   55  36  47 W10G25    29.93F
DRYDEN         PTSUNNY   59  37  44 W16G31    30.05F
KENORA         PTSUNNY   59  34  38 W13G22    30.09F
$$
                *** MANITOBA***

CITY           SKY/WX    TMP DP  RH WIND       PRES   REMARKS
BRANDON        MOSUNNY   64  37  36 W18       30.09F
DAUPHIN        SUNNY     68  39  34 W18G30    30.01F
ISLAND LAKE    MOSUNNY   63  37  39 W8        29.85F
PILOT MOUND      N/A     63  34  34 W10G18      N/A
THE PAS        CLOUDY    63  43  48 W8        29.87F
THOMPSON       LGT RAIN  46  45  93 N6        29.88R FOG
WINNIPEG       MOSUNNY   64  30  27 SW10G20   30.09F
LYNN LAKE      CLOUDY    37  34  87 MISG      29.96R
GILLAM         DRIZZLE   37  36  93 NE14G24   29.89R
$$
                ***SASKATCHEWAN***

CITY           SKY/WX    TMP DP  RH WIND       PRES   REMARKS
ESTEVAN        MOSUNNY   66  39  37 W8        30.12F
KINDERSLEY     MOSUNNY   70  37  30 W5G17     30.02F
LLOYDMINSTER   MOSUNNY   72  39  30 W17       29.96F
PRINCE ALBERT  NOT AVBL
REGINA         MOSUNNY   68  39  34 W16G23    30.05F
YORKTON        MOSUNNY   66  39  37 SW15G24   30.01F


USA.gov is the U.S. government's official web portal to all federal, state and local government web resources and services.